Airfield :
LOGIN :

Register | Disclaimer

   EN    FR    IT 

 










Legend :    VFR   Marginal VFR   IFR   Intensive IFR   Very Intensive IFR
Visi :
Ceiling :
>= 8 km
>= 3000ft
5 to 8 km
1000 to 3000 ft
1500m to 5 km
500 to 1000 ft
800 to 1500m
200 to 500 ft
< 800m
< 200 ft
Symbols :   Thunderstorms  Fog  Heavy snow  Heavy precipitations  Wind > 20 kt
SIGMETs :     Misc.  Thunderstorms  Icing  Turbulence  Mountain Waves  Volcanic Ashes







- Airport Elevation : 659 ft
- IATA code : LGG


EBLG - Liège

CURRENT METAR :
  • 222020Z 34004KT CAVOK 22/13 Q1017 NOSIG

EXPIRED METARs :
  • 221950Z 33004KT CAVOK 22/13 Q1016 NOSIG
  • 221920Z 35004KT CAVOK 23/13 Q1016 NOSIG
  • 221850Z 34006KT CAVOK 24/13 Q1016 NOSIG
  • 221820Z 33007KT CAVOK 25/12 Q1015 NOSIG
  • 221750Z 33005KT 300V040 CAVOK 26/11 Q1015 NOSIG

TAF TAF EBLG
Valid from the 22 at 18:00 until the 24 at 00:00 UTC


221730Z 2218/2324 35007KT CAVOK
No reported NOTAMs for that airfield.



MET'MAP, your aeronautical weather chart ! - Copyright ORBIFLY December 2007 - Disclaimer

ORBIFLY MET'MAP TEAM :

Programming & Development : Alexandra Zaïnal
Concept & Development : Baudouin d'Aumeries
Co-Development & Prog : Marc-Olivier Méhu
Technical & hardware support : Manuel Goepfert

Contact : metmap@orbifly.com




SOURCES & CREDITS :

   NOAA